Starlink 31116

operational
NORAD ID: 58947 Int'l Des: 2024-027 Owner: SPXS Country: US Constellation: starlink
LEOCIRCULAR

About Starlink 31116

Description loading...

Live Position

Loading 3D Globe...

Upcoming Passes

Altitude History

Altitude vs Time

uPlot chart will show altitude changes over time

Two-Line Element Set

1 58947U 24027S 25352.21813965 .00000654 00000-0 34219-4 0 9998
2 58947 53.1620 328.1197 0001314 83.5853 276.5298 15.30197397104856
Epoch: Dec 18, 2025 • Age: 9 hours

Current Status

Altitude 494.2 km
Velocity 7.62 km/s
Sub-Earth Point -52.12°S, 48.77°W
Launch Date Feb 10, 2024
Age 1.8 years
Type internet

Technical Details

Classification Payload
Mass 730.00 kg
Dry Mass 700.00 kg
Total Mass 730.00 kg
Length 0.30 m
Diameter 4.10 m
Span 29.00 m
Shape Box + pan
Manufacturer SPXS
Bus Type Starlink V2M
Phase Status In Orbit
Owner/State SPXS/US

Large Constellations

Loading constellations...